Location: Henau
(47.4548°N, 9.1164°E)
Time: 02:59:55
(UTC+00:00)

SAR-Lupe-1 - Pass Details

Date: 03 March 2021
Orbit: 482 x 483 km, 98.2° (Epoch: 30 March)

Event Time Altitude Azimuth Distance (km) Brightness Sun altitude
Rises 18:24:15 0° 13° (NNE) 2,560 7.6 -13.1°
Reaches altitude 10° 18:26:20 10° 13° (NNE) 1,674 6.7 -13.4°
Maximum altitude 18:29:56 87° 283° (WNW) 491 4.0 -14.0°
Drops below altitude 10° 18:33:30 10° 196° (SSW) 1,660 6.9 -14.6°
Sets 18:35:33 0° 196° (SSW) 2,535 7.8 -15.0°
